• In Latvia
  • List of Countries
  • For 7 days
  • Water Temperature
  • Satellite Maps
  • Weather Map
  • Weather Widgets
  • user-avatar
    Login

    Hourly Weather Korfu

    Today, 22 October, Sunday

    Time Temperature Precipitation Wind Pressure Humidity
    00:00 +17°C° 0 mm 5 mps 760 mmHg 77%
    01:00 +16°C° 0 mm 5 mps 759 mmHg 77%
    02:00 +16°C° 0 mm 5 mps 759 mmHg 75%
    03:00 +16°C° 0 mm 5 mps 759 mmHg 73%
    04:00 +15°C° 0 mm 5 mps 759 mmHg 71%
    05:00 +16°C° 0 mm 5 mps 759 mmHg 68%
    06:00 +16°C° 0 mm 5 mps 759 mmHg 65%
    07:00 +17°C° 0 mm 4 mps 759 mmHg 61%
    08:00 +20°C° 0 mm 4 mps 759 mmHg 54%
    09:00 +22°C° 0 mm 4 mps 759 mmHg 46%
    10:00 +25°C° 0 mm 3 mps 759 mmHg 38%
    11:00 +26°C° 0 mm 4 mps 758 mmHg 38%
    12:00 +27°C° 0 mm 4 mps 758 mmHg 38%
    13:00 +27°C° 0 mm 4 mps 758 mmHg 39%
    14:00 +26°C° 0 mm 4 mps 757 mmHg 44%
    15:00 +26°C° 0 mm 4 mps 757 mmHg 49%
    16:00 +25°C° 0 mm 4 mps 756 mmHg 54%
    17:00 +24°C° 0 mm 3 mps 756 mmHg 60%
    18:00 +21°C° 0 mm 3 mps 756 mmHg 67%
    19:00 +20°C° 0 mm 2 mps 756 mmHg 74%
    20:00 +19°C° 0 mm 2 mps 756 mmHg 76%
    21:00 +19°C° 0 mm 2 mps 756 mmHg 77%
    22:00 +18°C° 0 mm 2 mps 756 mmHg 79%
    23:00 +18°C° 0 mm 3 mps 756 mmHg 81%

    Tomorrow, 23 October, Monday

    Time Temperature Precipitation Wind Pressure Humidity
    00:00 +18°C° 0 mm 4 mps 755 mmHg 82%
    01:00 +18°C° 0 mm 4 mps 755 mmHg 84%
    02:00 +17°C° 1 mm 5 mps 754 mmHg 86%
    03:00 +16°C° 1 mm 5 mps 754 mmHg 87%
    04:00 +16°C° 1 mm 5 mps 753 mmHg 88%
    05:00 +16°C° 1.8 mm 5 mps 753 mmHg 88%
    06:00 +17°C° 1.8 mm 5 mps 753 mmHg 88%
    07:00 +18°C° 1.8 mm 4 mps 752 mmHg 88%
    08:00 +19°C° 0.4 mm 5 mps 752 mmHg 83%
    09:00 +19°C° 0.4 mm 5 mps 752 mmHg 78%
    10:00 +20°C° 0.4 mm 5 mps 752 mmHg 73%
    11:00 +21°C° 0.5 mm 4 mps 751 mmHg 67%
    12:00 +21°C° 0.5 mm 4 mps 751 mmHg 61%
    13:00 +21°C° 0.5 mm 4 mps 750 mmHg 55%
    14:00 +20°C° 0.8 mm 3 mps 750 mmHg 59%
    15:00 +20°C° 0.8 mm 3 mps 749 mmHg 63%
    16:00 +19°C° 0.8 mm 3 mps 749 mmHg 68%
    17:00 +18°C° 0.5 mm 3 mps 749 mmHg 71%
    18:00 +17°C° 0.5 mm 3 mps 749 mmHg 74%
    19:00 +16°C° 0.5 mm 3 mps 749 mmHg 78%
    20:00 +16°C° 0.3 mm 3 mps 749 mmHg 78%
    21:00 +15°C° 0.3 mm 4 mps 749 mmHg 78%
    22:00 +14°C° 0.3 mm 5 mps 749 mmHg 78%
    23:00 +14°C° 0.6 mm 5 mps 749 mmHg 78%

    Day after tomorrow, 24 October, Tuesday

    Time Temperature Precipitation Wind Pressure Humidity
    00:00 +14°C° 0.6 mm 5 mps 749 mmHg 79%
    01:00 +13°C° 0.6 mm 6 mps 749 mmHg 80%
    02:00 +13°C° 0.7 mm 6 mps 748 mmHg 80%
    03:00 +13°C° 0.7 mm 6 mps 748 mmHg 79%
    04:00 +13°C° 0.7 mm 6 mps 748 mmHg 79%
    05:00 +13°C° 0.3 mm 6 mps 748 mmHg 78%
    06:00 +13°C° 0.3 mm 6 mps 748 mmHg 76%
    07:00 +12°C° 0.3 mm 7 mps 748 mmHg 75%
    08:00 +15°C° 0.1 mm 7 mps 749 mmHg 67%
    09:00 +16°C° 0.1 mm 7 mps 749 mmHg 59%
    10:00 +18°C° 0.1 mm 7 mps 749 mmHg 51%
    11:00 +18°C° 0 mm 7 mps 749 mmHg 49%
    12:00 +20°C° 0 mm 8 mps 749 mmHg 47%
    13:00 +20°C° 0 mm 8 mps 749 mmHg 45%
    14:00 +20°C° 0 mm 8 mps 749 mmHg 48%
    15:00 +18°C° 0 mm 9 mps 749 mmHg 51%
    16:00 +18°C° 0 mm 9 mps 749 mmHg 53%
    17:00 +17°C° 0 mm 8 mps 749 mmHg 57%
    18:00 +15°C° 0 mm 8 mps 750 mmHg 61%
    19:00 +13°C° 0 mm 8 mps 750 mmHg 64%
    20:00 +14°C° 0 mm 7 mps 750 mmHg 66%
    21:00 +14°C° 0 mm 7 mps 751 mmHg 67%
    22:00 +13°C° 0 mm 6 mps 751 mmHg 68%
    23:00 +13°C° 0 mm 6 mps 751 mmHg 69%

    25 October, Wednesday

    Time Temperature Precipitation Wind Pressure Humidity
    00:00 +13°C° 0 mm 5 mps 752 mmHg 69%
    01:00 +12°C° 0 mm 5 mps 752 mmHg 70%
    02:00 +13°C° 0 mm 5 mps 752 mmHg 69%
    03:00 +13°C° 0 mm 4 mps 752 mmHg 68%
    04:00 +13°C° 0 mm 4 mps 753 mmHg 67%
    05:00 +13°C° 0 mm 4 mps 753 mmHg 67%
    06:00 +14°C° 0 mm 4 mps 754 mmHg 67%
    07:00 +14°C° 0 mm 4 mps 754 mmHg 66%
    08:00 +17°C° 0 mm 4 mps 755 mmHg 61%
    09:00 +19°C° 0 mm 3 mps 755 mmHg 57%
    10:00 +20°C° 0 mm 3 mps 756 mmHg 52%
    11:00 +21°C° 0 mm 3 mps 756 mmHg 50%
    12:00 +23°C° 0 mm 2 mps 756 mmHg 49%
    13:00 +23°C° 0 mm 2 mps 757 mmHg 47%
    14:00 +23°C° 0 mm 2 mps 757 mmHg 50%
    15:00 +22°C° 0 mm 3 mps 758 mmHg 52%
    16:00 +21°C° 0 mm 3 mps 758 mmHg 55%
    17:00 +20°C° 0 mm 3 mps 759 mmHg 57%
    18:00 +19°C° 0 mm 3 mps 759 mmHg 59%
    19:00 +19°C° 0 mm 3 mps 760 mmHg 61%
    20:00 +18°C° 0 mm 3 mps 760 mmHg 64%
    21:00 +17°C° 0 mm 3 mps 761 mmHg 66%
    22:00 +17°C° 0 mm 3 mps 762 mmHg 69%
    23:00 +16°C° 0 mm 3 mps 762 mmHg 70%

    26 October, Thursday

    Time Temperature Precipitation Wind Pressure Humidity
    00:00 +16°C° 0 mm 3 mps 762 mmHg 71%
    01:00 +14°C° 0 mm 3 mps 762 mmHg 72%
    02:00 +14°C° 0 mm 3 mps 762 mmHg 72%
    03:00 +14°C° 0 mm 3 mps 763 mmHg 72%
    04:00 +14°C° 0 mm 3 mps 763 mmHg 72%
    05:00 +14°C° 0 mm 3 mps 763 mmHg 71%
    06:00 +14°C° 0 mm 3 mps 764 mmHg 70%
    07:00 +14°C° 0 mm 3 mps 764 mmHg 69%
    08:00 +18°C° 0 mm 2 mps 764 mmHg 61%
    09:00 +20°C° 0 mm 2 mps 764 mmHg 54%
    10:00 +23°C° 0 mm 1 mps 764 mmHg 47%
    11:00 +24°C° 0 mm 2 mps 764 mmHg 45%
    12:00 +24°C° 0 mm 2 mps 764 mmHg 44%
    13:00 +25°C° 0 mm 2 mps 763 mmHg 42%
    14:00 +24°C° 0 mm 3 mps 763 mmHg 46%
    15:00 +24°C° 0 mm 3 mps 763 mmHg 51%
    16:00 +22°C° 0 mm 4 mps 763 mmHg 55%
    17:00 +21°C° 0 mm 4 mps 763 mmHg 58%
    18:00 +20°C° 0 mm 4 mps 763 mmHg 62%
    19:00 +18°C° 0 mm 4 mps 764 mmHg 65%
    20:00 +18°C° 0 mm 3 mps 764 mmHg 65%
    21:00 +18°C° 0 mm 3 mps 764 mmHg 64%
    22:00 +18°C° 0 mm 3 mps 764 mmHg 64%
    23:00 +17°C° 0 mm 3 mps 764 mmHg 63%

    27 October, Friday

    Time Temperature Precipitation Wind Pressure Humidity
    00:00 +17°C° 0 mm 3 mps 764 mmHg 63%
    01:00 +17°C° 0 mm 3 mps 764 mmHg 62%
    02:00 +16°C° 0 mm 3 mps 764 mmHg 61%
    03:00 +16°C° 0 mm 3 mps 763 mmHg 61%
    04:00 +16°C° 0 mm 3 mps 763 mmHg 61%
    05:00 +16°C° 0 mm 3 mps 763 mmHg 60%
    06:00 +16°C° 0 mm 2 mps 763 mmHg 59%
    07:00 +17°C° 0 mm 2 mps 763 mmHg 59%
    08:00 +19°C° 0 mm 2 mps 763 mmHg 54%
    09:00 +21°C° 0 mm 2 mps 763 mmHg 50%
    10:00 +24°C° 0 mm 2 mps 763 mmHg 45%
    11:00 +24°C° 0 mm 2 mps 762 mmHg 45%
    12:00 +24°C° 0 mm 3 mps 762 mmHg 45%
    13:00 +25°C° 0 mm 3 mps 761 mmHg 44%
    14:00 +24°C° 0 mm 3 mps 761 mmHg 48%
    15:00 +22°C° 0 mm 3 mps 760 mmHg 53%
    16:00 +22°C° 0 mm 3 mps 760 mmHg 57%
    17:00 +20°C° 0 mm 3 mps 760 mmHg 62%
    18:00 +19°C° 0 mm 3 mps 760 mmHg 67%
    19:00 +18°C° 0 mm 2 mps 760 mmHg 72%
    20:00 +17°C° 0 mm 2 mps 759 mmHg 73%
    21:00 +17°C° 0 mm 2 mps 759 mmHg 73%
    22:00 +17°C° 0 mm 2 mps 759 mmHg 74%
    23:00 +16°C° 0 mm 2 mps 759 mmHg 75%
    Show more